Regional Weather Roundup
Issued by NWS Northern Indiana

Home | Current Version | Previous Version | Graphics & Text | Print | Product List | Glossary On
Versions: 1 2 3 4 5 6 7 8 9 10 11 12 13 14 15 16 17 18 19 20 21 22 23 24 25 26 27 28 29 30 31 32 33 34 35 36 37 38 39 40 41 42 43 44 45 46 47 48 49 50
000
ASUS43 KIWX 210100
RWRIWX

KIWX WEATHER ROUNDUP
NATIONAL WEATHER SERVICE NORTHERN INDIANA
900 PM EDT WED AUG 20 2014

NOTE: "FAIR" INDICATES FEW OR NO CLOUDS BELOW 12,000 FEET WITH NO
SIGNIFICANT WEATHER AND/OR OBSTRUCTIONS TO VISIBILITY.

* THESE STATIONS ARE NOT UNDER NWS QUALITY CONTROL. THEY ALSO MAY NOT
  REPORT WEATHER SUCH AS PRECIPITATION OR FOG.

INZ001>027-210200-
NORTHERN INDIANA

CITY           SKY/WX    TMP DP  RH WIND       PRES   REMARKS
GARY*          PTCLDY    81  68  65 W8        29.90R
VALPARAISO     PTCLDY    78  69  73 W10       29.91S
KNOX*          CLEAR     74  68  80 CALM      29.90S
SOUTH BEND     CLEAR     77  65  66 CALM      29.91R
ELKHART*       PTCLDY    75  66  73 CALM      29.92R
GOSHEN         PTCLDY    76  68  76 S5        29.92R
MONTICELLO*    CLEAR     74  68  82 CALM      29.91F
WARSAW*        CLOUDY    77  68  73 W5        29.92R
ANGOLA*        MOCLDY    75  66  73 CALM      29.92R
FORT WAYNE     PTCLDY    74  64  71 W3        29.93R
PERU/GRISSOM   CLEAR     75  73  95 SW6       29.94R

$$
INZ028>050-210200-
CENTRAL INDIANA

CITY           SKY/WX    TMP DP  RH WIND       PRES   REMARKS
LAFAYETTE      PTCLDY    72  67  84 CALM      29.92F
KOKOMO*        CLEAR     75  66  73 W8        29.95R
MUNCIE*        CLEAR     77  63  61 W8        29.96R
INDIANAPOLIS   MOCLDY    74  67  78 SW8       29.97R

$$
MIZ043>046-050>051-056>058-064>065-071>073-077>080-210200-
SOUTHWEST LOWER MICHIGAN

CITY           SKY/WX    TMP DP  RH WIND       PRES   REMARKS
BATTLE CREEK   CLEAR     75  64  68 N3        29.93R
BENTON HARBOR  PTCLDY    71  66  84 CALM      29.89S
COLDWATER*     CLEAR     72  68  87 CALM      29.93R
HILLSDALE*     CLEAR     69  67  94 CALM      29.94R
HOLLAND        CLEAR     75  65  70 CALM      29.91R
GRAND RAPIDS   PTCLDY    74  66  76 NW5       29.91R
KALAMAZOO      CLEAR     76  65  68 CALM      29.92R
STURGIS*       CLEAR     72  68  88 CALM      29.92R
THREE RIVERS*  CLOUDY    75  68  78 CALM      29.92R

$$
OHZ001>008-015>018-024>025-210200-
NORTHWEST OHIO

CITY           SKY/WX    TMP DP  RH WIND       PRES   REMARKS
DEFIANCE       CLEAR     75  66  73 CALM      29.92R
FINDLAY        CLEAR     74  67  78 S3        29.91R
TOLEDO EXPRESS CLEAR     72  67  84 CALM      29.90R
TOLEDO METCALF CLEAR     78  65  63 N3        29.91R
LIMA           CLEAR     76  67  73 S3        29.93R

$$
&&



USA.gov is the U.S. government's official web portal to all federal, state and local government web resources and services.